Lambertville, MI

2:46 AM EDT on August 19, 2017 (GMT -0400)
Lambertville

Weather History for KDUH - April, 2013

Change the Weather History Date:

Friday, April 19, 2013

  Actual Average (KTOL) Record (KTOL)
Temperature  
Mean Temperature 50 °F -  
Max Temperature 63 °F 62 °F 85 °F (1985)
Min Temperature 37 °F 40 °F 22 °F (1983)
Degree Days  
Heating Degree Days 15    
Moisture  
Dew Point 39 °F    
Average Humidity 76    
Maximum Humidity 93    
Minimum Humidity 59    
Precipitation  
Precipitation 0.00 in - - ()
Sea Level Pressure  
Sea Level Pressure 29.60 in    
Wind  
Wind Speed 10 mph (WSW)    
Max Wind Speed 25 mph    
Max Gust Speed 36 mph    
Visibility 9 miles    
Events Rain    
Averages and records for this station are not official NWS values.
T = Trace of Precipitation, MM = Missing Value Source: NWS Daily Summary

Daily Weather History Graph

Daily Weather History Graph

Search for Another Location

Airport or City:

Trip Planner

Search our weather history database for the weather conditions in past years. The results will help you decide how hot, cold, wet, or windy it might be!

Date:

Astronomy

Apr. 19, 2013 Rise Set
Actual Time 6:47 AM EDT 8:20 PM EDT
Civil Twilight 6:18 AM EDT 8:49 PM EDT
Nautical Twilight 5:43 AM EDT 9:24 PM EDT
Astronomical Twilight 5:06 AM EDT 10:02 PM EDT
Moon 1:58 PM EDT 3:08 AM EDT
Length of Visible Light 14h 30m
Length of Day
13h 32m
First Quarter, 61% of the Moon is Illuminated
Apr 19
First Quarter
Apr 25
Full
May 2
Last Quarter
May 9
New
May 18
First Quarter

Hourly Weather History & Observations

Time (EDT) Temp. Windchill Dew Point Humidity Pressure Visibility Wind Dir Wind Speed Gust Speed Precip Events Conditions
12:15 AM 59.0 °F - 56.5 °F 91% 29.59 in 10.0 mi SE 4.6 mph - N/A   Overcast
12:35 AM 59.0 °F - 56.5 °F 91% 29.58 in 7.0 mi South 3.5 mph - N/A   Overcast
12:55 AM 59.0 °F - 56.5 °F 91% 29.58 in 10.0 mi Calm Calm - N/A   Overcast
1:15 AM 58.8 °F - 56.3 °F 91% 29.56 in 7.0 mi Calm Calm - N/A   Overcast
1:35 AM 58.3 °F - 55.9 °F 92% 29.54 in 5.0 mi Calm Calm - N/A   Overcast
1:55 AM 58.5 °F - 56.3 °F 93% 29.52 in 5.0 mi Calm Calm - N/A Rain Light Rain
2:15 AM 58.1 °F - 55.8 °F 92% 29.50 in 3.0 mi East 4.6 mph - N/A Rain Rain
2:35 AM 58.3 °F - 56.3 °F 93% 29.49 in 4.0 mi Calm Calm - N/A   Drizzle
2:55 AM 58.5 °F - 56.3 °F 93% 29.47 in 7.0 mi ESE 3.5 mph - N/A   Drizzle
3:15 AM 58.6 °F - 56.3 °F 92% 29.45 in 7.0 mi Calm Calm - N/A Rain Light Rain
3:35 AM 59.5 °F - 56.5 °F 90% 29.42 in 10.0 mi ESE 3.5 mph - N/A Rain Light Rain
3:55 AM 59.9 °F - 56.5 °F 88% 29.41 in 10.0 mi SSE 3.5 mph - N/A   Light Drizzle
4:15 AM 61.5 °F - 56.3 °F 83% 29.40 in 10.0 mi South 3.5 mph - N/A Rain Light Rain
4:35 AM 62.2 °F - 56.3 °F 81% 29.39 in 10.0 mi South 4.6 mph - N/A Rain Rain
4:55 AM 63.1 °F - 56.8 °F 80% 29.37 in 10.0 mi South 9.2 mph 25.3 mph N/A Rain Rain
5:15 AM 62.4 °F - 57.2 °F 83% 29.37 in 10.0 mi SSW 6.9 mph - N/A Rain Rain
5:35 AM 61.7 °F - 57.4 °F 86% 29.37 in 10.0 mi SW 9.2 mph - N/A Rain Light Rain
5:55 AM 55.9 °F - 51.4 °F 85% 29.41 in 7.0 mi West 16.1 mph 27.6 mph N/A Rain Light Rain
6:15 AM 52.2 °F - 48.6 °F 88% 29.40 in 10.0 mi West 16.1 mph 29.9 mph N/A   Drizzle
6:55 AM 48.6 °F - 43.9 °F 84% 29.43 in 10.0 mi West 16.1 mph 21.9 mph N/A   Overcast
7:15 AM 47.3 °F - 43.7 °F 87% 29.45 in 5.0 mi West 11.5 mph 20.7 mph N/A Rain Heavy Rain
7:35 AM 45.9 °F 39.7 °F 42.3 °F 87% 29.47 in 3.0 mi WSW 13.8 mph 25.3 mph N/A   Heavy Drizzle
7:55 AM 44.6 °F 39.2 °F 41.4 °F 88% 29.49 in 2.5 mi West 10.4 mph 23.0 mph N/A   Drizzle
8:15 AM 42.6 °F 35.6 °F 39.2 °F 88% 29.49 in 5.0 mi West 13.8 mph 26.5 mph N/A   Drizzle
8:35 AM 42.8 °F 35.8 °F 38.3 °F 84% 29.50 in 10.0 mi WSW 13.8 mph 23.0 mph N/A Rain Light Rain
8:55 AM 41.7 °F 32.6 °F 36.5 °F 82% 29.51 in 10.0 mi West 20.7 mph 27.6 mph N/A   Overcast
9:15 AM 41.2 °F 34.5 °F 35.8 °F 81% 29.51 in 10.0 mi West 11.5 mph 24.2 mph N/A   Overcast
9:35 AM 41.4 °F 31.9 °F 35.6 °F 80% 29.52 in 10.0 mi West 21.9 mph 29.9 mph N/A   Overcast
9:55 AM 40.6 °F 32.0 °F 34.2 °F 78% 29.52 in 10.0 mi West 17.3 mph 35.7 mph N/A   Overcast
10:15 AM 41.0 °F 32.5 °F 32.7 °F 72% 29.53 in 10.0 mi WSW 17.3 mph 34.5 mph N/A   Overcast
10:55 AM 41.0 °F 32.5 °F 32.4 °F 71% 29.55 in 10.0 mi WSW 17.3 mph 31.1 mph N/A   Overcast
11:15 AM 41.0 °F 32.5 °F 32.0 °F 70% 29.57 in 10.0 mi WSW 17.3 mph 27.6 mph N/A   Overcast
11:35 AM 40.6 °F 32.7 °F 31.8 °F 71% 29.59 in 10.0 mi WSW 15.0 mph 28.8 mph N/A   Overcast
11:55 AM 41.0 °F 32.5 °F 31.6 °F 69% 29.59 in 10.0 mi WSW 17.3 mph 26.5 mph N/A   Overcast
12:15 PM 41.0 °F 33.9 °F 31.6 °F 69% 29.59 in 10.0 mi WSW 12.7 mph 24.2 mph N/A   Overcast
12:35 PM 40.6 °F 32.7 °F 31.1 °F 69% 29.60 in 10.0 mi WSW 15.0 mph 33.4 mph N/A   Overcast
12:55 PM 40.5 °F 30.9 °F 30.4 °F 67% 29.60 in 10.0 mi WSW 20.7 mph 31.1 mph N/A   Overcast
1:15 PM 41.4 °F 34.7 °F 31.6 °F 68% 29.60 in 10.0 mi WSW 11.5 mph 27.6 mph N/A   Overcast
1:35 PM 41.4 °F 33.3 °F 30.9 °F 66% 29.61 in 10.0 mi WSW 16.1 mph 26.5 mph N/A   Overcast
1:55 PM 41.2 °F 31.9 °F 30.7 °F 66% 29.61 in 10.0 mi WSW 20.7 mph 31.1 mph N/A   Overcast
2:15 PM 42.1 °F 33.9 °F 30.6 °F 64% 29.61 in 10.0 mi WSW 17.3 mph 33.4 mph N/A   Overcast
2:35 PM 41.9 °F 33.4 °F 30.7 °F 65% 29.62 in 10.0 mi SW 18.4 mph 33.4 mph N/A   Overcast
2:55 PM 42.4 °F 33.5 °F 29.3 °F 60% 29.63 in 10.0 mi WSW 20.7 mph 27.6 mph N/A   Overcast
3:15 PM 42.8 °F 33.3 °F 29.3 °F 59% 29.65 in 10.0 mi WSW 24.2 mph 34.5 mph N/A   Overcast
3:35 PM 42.1 °F 33.3 °F 29.5 °F 61% 29.65 in 10.0 mi WSW 19.6 mph 33.4 mph N/A   Overcast
3:55 PM 42.6 °F 32.8 °F 29.3 °F 59% 29.65 in 10.0 mi WSW 25.3 mph 33.4 mph N/A   Overcast
4:15 PM 41.9 °F 32.8 °F 29.5 °F 61% 29.65 in 10.0 mi WSW 20.7 mph 31.1 mph N/A   Overcast
4:35 PM 41.5 °F 33.8 °F 29.5 °F 62% 29.67 in 10.0 mi WSW 15.0 mph 33.4 mph N/A   Overcast
4:55 PM 41.7 °F 32.9 °F 29.8 °F 63% 29.68 in 10.0 mi WSW 19.6 mph 32.2 mph N/A   Overcast
5:15 PM 41.4 °F 31.9 °F 30.0 °F 64% 29.69 in 10.0 mi WSW 21.9 mph 31.1 mph N/A   Overcast
5:35 PM 41.0 °F 31.9 °F 30.4 °F 66% 29.70 in 10.0 mi WSW 19.6 mph 28.8 mph N/A   Overcast
5:55 PM 41.4 °F 34.0 °F 30.2 °F 65% 29.71 in 10.0 mi WSW 13.8 mph 26.5 mph N/A   Overcast
6:15 PM 41.0 °F 32.5 °F 30.9 °F 67% 29.72 in 10.0 mi WSW 17.3 mph 29.9 mph N/A   Overcast
6:35 PM 40.5 °F 31.8 °F 31.1 °F 69% 29.73 in 10.0 mi SW 17.3 mph 27.6 mph N/A   Overcast
6:55 PM 40.6 °F 33.8 °F 30.4 °F 67% 29.73 in 10.0 mi SW 11.5 mph 25.3 mph N/A   Overcast
7:15 PM 39.7 °F 30.3 °F 30.9 °F 71% 29.74 in 10.0 mi WSW 19.6 mph 26.5 mph N/A Rain Light Rain
7:35 PM 40.5 °F 32.8 °F 29.8 °F 66% 29.75 in 10.0 mi SW 13.8 mph 29.9 mph N/A   Overcast
7:55 PM 40.1 °F 32.0 °F 30.0 °F 67% 29.75 in 10.0 mi WSW 15.0 mph 24.2 mph N/A   Overcast
8:15 PM 40.1 °F 31.3 °F 30.2 °F 68% 29.77 in 10.0 mi WSW 17.3 mph 25.3 mph N/A   Overcast
8:35 PM 39.9 °F 31.4 °F 30.6 °F 69% 29.78 in 10.0 mi WSW 16.1 mph 26.5 mph N/A   Overcast
8:55 PM 39.0 °F 32.3 °F 31.6 °F 75% 29.78 in 10.0 mi SW 10.4 mph 23.0 mph N/A   Overcast
9:15 PM 38.8 °F 32.1 °F 31.6 °F 75% 29.79 in 10.0 mi SW 10.4 mph 17.3 mph N/A   Overcast
9:35 PM 38.7 °F 31.4 °F 31.3 °F 75% 29.80 in 10.0 mi SW 11.5 mph 19.6 mph N/A   Overcast
9:55 PM 38.8 °F 31.2 °F 30.2 °F 71% 29.80 in 10.0 mi WSW 12.7 mph 21.9 mph N/A   Overcast
10:15 PM 39.2 °F 32.5 °F 30.0 °F 70% 29.81 in 10.0 mi SW 10.4 mph 18.4 mph N/A   Overcast
10:35 PM 38.8 °F 30.4 °F 30.2 °F 71% 29.80 in 10.0 mi WSW 15.0 mph 21.9 mph N/A   Overcast
10:55 PM 38.5 °F 29.9 °F 29.3 °F 70% 29.81 in 10.0 mi WSW 15.0 mph 23.0 mph N/A   Overcast
11:15 PM 38.3 °F 29.3 °F 28.8 °F 69% 29.80 in 10.0 mi WSW 16.1 mph 24.2 mph N/A   Mostly Cloudy
11:35 PM 37.8 °F 30.7 °F 29.1 °F 71% 29.80 in 10.0 mi WSW 10.4 mph 19.6 mph N/A   Scattered Clouds
11:55 PM 37.6 °F 29.1 °F 29.1 °F 72% 29.81 in 10.0 mi WSW 13.8 mph 21.9 mph N/A   Mostly Cloudy